Palma de Mallorca, Spain

10:54 AM CET on February 24, 2017 (GMT +0100)
Palma De Mallorca

Weather History for LEPA - April, 2011

Change the Weather History Date:

Thursday, April 28, 2011

  Actual Average Record
Temperature  
Mean Temperature 60 °F -  
Max Temperature 72 °F 73 °F 78 °F (2003)
Min Temperature 49 °F 53 °F 44 °F (1998)
Degree Days  
Heating Degree Days 4    
Growing Degree Days 10 (Base 50)    
Moisture  
Dew Point 53 °F    
Average Humidity 77    
Maximum Humidity 100    
Minimum Humidity 40    
Precipitation  
Precipitation 0.00 in 0.04 in - ()
Sea Level Pressure  
Sea Level Pressure 29.87 in    
Wind  
Wind Speed 3 mph ()    
Max Wind Speed 13 mph    
Max Gust Speed -    
Visibility 7.6 miles    
Events      
Averages and records for this station are not official NWS values.
T = Trace of Precipitation, MM = Missing Value Source: Averaged Metar Reports

Daily Weather History Graph

Daily Weather History Graph

Search for Another Location

Airport or City:

Trip Planner

Search our weather history database for the weather conditions in past years. The results will help you decide how hot, cold, wet, or windy it might be!

Date:

Astronomy

Apr. 28, 2011 Rise Set
Actual Time 6:54 AM CEST 8:39 PM CEST
Civil Twilight 6:25 AM CEST 9:08 PM CEST
Nautical Twilight 5:50 AM CEST 9:43 PM CEST
Astronomical Twilight 5:13 AM CEST 10:20 PM CEST
Moon 4:16 AM CEST (4/28) 4:24 PM CEST (4/28)
Length of Visible Light 14h 42m
Length of Day
13h 45m
Waning Crescent, 20% of the Moon is Illuminated
Apr 28
Waning Crescent
May 3
New
May 10
First Quarter
May 17
Full
May 24
Last Quarter

Hourly Weather History & Observations

Time (CEST) Temp. Dew Point Humidity Pressure Visibility Wind Dir Wind Speed Gust Speed Precip Events Conditions
12:00 AM 55.4 °F 55.4 °F 100% 29.95 in 6.2 mi East 2.3 mph - N/A   Partly Cloudy
12:30 AM 55.4 °F 53.6 °F 94% 29.95 in - NE 2.3 mph - N/A   Clear
1:00 AM 53.6 °F 53.6 °F 100% 29.95 in - NNE 3.5 mph - N/A   Clear
1:30 AM 53.6 °F 53.6 °F 100% 29.95 in - Calm Calm - N/A   Clear
2:00 AM 54 °F 54 °F 98% 29.94 in 9 mi Calm Calm - -  
2:00 AM 53.6 °F 53.6 °F 100% 29.95 in - NNW 1.2 mph - N/A   Clear
2:30 AM 53.6 °F 51.8 °F 94% 29.92 in - Calm Calm - N/A   Clear
3:00 AM 51.8 °F 51.8 °F 100% 29.92 in - Calm Calm - N/A   Clear
3:30 AM 51.8 °F 50.0 °F 94% 29.92 in - Variable 1.2 mph - N/A   Clear
4:00 AM 50.0 °F 50.0 °F 100% 29.92 in - Calm Calm - N/A   Clear
4:30 AM 50.0 °F 50.0 °F 100% 29.89 in - NE 3.5 mph - N/A   Clear
5:00 AM 50.0 °F 48.2 °F 94% 29.89 in - NE 3.5 mph - N/A   Clear
5:30 AM 48.2 °F 48.2 °F 100% 29.89 in - Calm Calm - N/A   Clear
6:00 AM 48.2 °F 48.2 °F 100% 29.89 in - Calm Calm - N/A   Clear
6:30 AM 48.2 °F 46.4 °F 93% 29.89 in - Variable 1.2 mph - N/A   Clear
7:00 AM 48.2 °F 48.2 °F 100% 29.89 in - Calm Calm - N/A   Clear
7:30 AM 48.2 °F 48.2 °F 100% 29.89 in - Calm Calm - N/A   Clear
8:00 AM 51 °F 50 °F 96% 29.90 in 16 mi Calm Calm - -  
8:00 AM 50.0 °F 50.0 °F 100% 29.89 in - NE 1.2 mph - N/A   Clear
8:30 AM 55.4 °F 53.6 °F 94% 29.89 in - Calm Calm - N/A   Clear
9:00 AM 59.0 °F 55.4 °F 88% 29.89 in - Calm Calm - N/A   Clear
9:30 AM 64.4 °F 55.4 °F 73% 29.89 in - Calm Calm - N/A   Clear
10:00 AM 66.2 °F 53.6 °F 64% 29.89 in - Calm Calm - N/A   Clear
10:30 AM 69.8 °F 50.0 °F 49% 29.86 in - Calm Calm - N/A   Clear
11:00 AM 71.6 °F 51.8 °F 50% 29.86 in - Variable 1.2 mph - N/A   Clear
11:30 AM 71.6 °F 46.4 °F 41% 29.86 in 6.2 mi SW 1.2 mph - N/A   Partly Cloudy
12:00 PM 73.4 °F 50.0 °F 44% 29.86 in 6.2 mi Variable 2.3 mph - N/A   Partly Cloudy
12:30 PM 71.6 °F 51.8 °F 50% 29.86 in 6.2 mi SW 9.2 mph - N/A   Partly Cloudy
1:00 PM 71.6 °F 53.6 °F 53% 29.86 in 6.2 mi SW 10.4 mph - N/A   Partly Cloudy
1:30 PM 71.6 °F 51.8 °F 50% 29.86 in 6.2 mi SSW 10.4 mph - N/A   Partly Cloudy
2:00 PM 71 °F 52 °F 40% 29.87 in 16 mi SW 12.7 mph - -   Scattered Clouds
2:00 PM 71.6 °F 51.8 °F 50% 29.86 in 6.2 mi SSW 11.5 mph - N/A   Partly Cloudy
2:30 PM 71.6 °F 53.6 °F 53% 29.86 in 6.2 mi SSW 12.7 mph - N/A   Partly Cloudy
3:00 PM 71.6 °F 50.0 °F 46% 29.83 in 6.2 mi SSW 10.4 mph - N/A   Partly Cloudy
3:30 PM 71.6 °F 53.6 °F 53% 29.83 in 6.2 mi SW 11.5 mph - N/A   Partly Cloudy
4:00 PM 71.6 °F 53.6 °F 53% 29.83 in 6.2 mi SW 10.4 mph - N/A   Partly Cloudy
4:30 PM 69.8 °F 55.4 °F 60% 29.83 in 6.2 mi SW 11.5 mph - N/A   Partly Cloudy
5:00 PM 71.6 °F 55.4 °F 57% 29.80 in 6.2 mi SW 9.2 mph - N/A   Partly Cloudy
5:30 PM 69.8 °F 53.6 °F 56% 29.80 in 6.2 mi SW 9.2 mph - N/A   Partly Cloudy
6:00 PM 69.8 °F 55.4 °F 60% 29.80 in 6.2 mi SW 10.4 mph - N/A   Partly Cloudy
6:30 PM 69.8 °F 55.4 °F 60% 29.80 in 6.2 mi SW 9.2 mph - N/A   Partly Cloudy
7:00 PM 68.0 °F 57.2 °F 68% 29.80 in 6.2 mi SW 9.2 mph - N/A   Partly Cloudy
7:30 PM 66.2 °F 57.2 °F 73% 29.80 in 6.2 mi SW 5.8 mph - N/A   Partly Cloudy
8:00 PM 66 °F 57 °F 64% 29.81 in 17 mi WSW 5.8 mph - -   Scattered Clouds
8:00 PM 66.2 °F 57.2 °F 73% 29.80 in 6.2 mi SW 4.6 mph - N/A   Partly Cloudy
8:30 PM 64.4 °F 57.2 °F 77% 29.80 in - SW 2.3 mph - N/A   Clear
9:00 PM 64.4 °F 57.2 °F 77% 29.80 in - Calm Calm - N/A   Clear
9:30 PM 62.6 °F 57.2 °F 82% 29.80 in - Calm Calm - N/A   Clear
10:00 PM 60.8 °F 57.2 °F 88% 29.83 in - Calm Calm - N/A   Clear
10:30 PM 59.0 °F 55.4 °F 88% 29.83 in - Calm Calm - N/A   Clear
11:00 PM 57.2 °F 55.4 °F 94% 29.83 in - Variable 1.2 mph - N/A   Clear
11:30 PM 57.2 °F 55.4 °F 94% 29.83 in - NNE 1.2 mph - N/A   Clear